contact:dominique.lefevre@mio.osupytheas.fr, maurice.libes@osupytheas.fr, didier.mallarino@osupytheas.fr
Project:EMSO http://www.emso-fr.org/EMSO-France
Depth: 2436.0 m
Title:EMSO Ligure Ouest : Data MII capteur MICROCAT
DateTime_Computer,Latitude,Longitude,Temperature,Conductivity,Pressure,DateTime_Instrument
DateTime_Computer,Latitude,Longitude,degC,S m-1,dbar,DateTime_Instrument
2021-06-22T00:01:34Z,42.805,6.029,13.2994,4.60000,2470.38,2021-6-22T02:02:48Z
2021-06-22T00:04:37Z,42.805,6.029,13.2996,4.60000,2470.413,2021-6-22T02:05:51Z
2021-06-22T00:07:40Z,42.805,6.029,13.2993,4.60001,2470.366,2021-6-22T02:08:54Z
2021-06-22T00:10:44Z,42.805,6.029,13.2996,4.60000,2470.366,2021-6-22T02:11:58Z
2021-06-22T00:13:47Z,42.805,6.029,13.2995,4.60001,2470.39,2021-6-22T02:15:01Z
2021-06-22T00:16:50Z,42.805,6.029,13.2997,4.60000,2470.39,2021-6-22T02:18:04Z
2021-06-22T00:19:53Z,42.805,6.029,13.2993,4.60001,2470.39,2021-6-22T02:21:07Z
2021-06-22T00:22:56Z,42.805,6.029,13.2998,4.60000,2470.366,2021-6-22T02:24:10Z
2021-06-22T00:25:59Z,42.805,6.029,13.2996,4.60004,2470.39,2021-6-22T02:27:13Z
2021-06-22T00:29:02Z,42.805,6.029,13.2990,4.60001,2470.39,2021-6-22T02:30:16Z
2021-06-22T00:32:05Z,42.805,6.029,13.2995,4.60000,2470.427,2021-6-22T02:33:19Z
2021-06-22T00:35:09Z,42.805,6.029,13.2993,4.60001,2470.343,2021-6-22T02:36:23Z
2021-06-22T00:38:12Z,42.805,6.029,13.2996,4.60001,2470.366,2021-6-22T02:39:26Z
2021-06-22T00:41:15Z,42.805,6.029,13.2994,4.59999,2470.366,2021-6-22T02:42:29Z
2021-06-22T00:44:18Z,42.805,6.029,13.2992,4.59999,2470.404,2021-6-22T02:45:32Z
2021-06-22T00:47:21Z,42.805,6.029,13.2994,4.60000,2470.366,2021-6-22T02:48:35Z
2021-06-22T00:50:24Z,42.805,6.029,13.2996,4.60002,2470.404,2021-6-22T02:51:38Z
2021-06-22T00:53:27Z,42.805,6.029,13.2994,4.60000,2470.39,2021-6-22T02:54:41Z
2021-06-22T00:56:30Z,42.805,6.029,13.2991,4.59999,2470.427,2021-6-22T02:57:44Z
2021-06-22T00:59:34Z,42.805,6.029,13.2994,4.60000,2470.39,2021-6-22T03:00:48Z
2021-06-22T01:02:37Z,42.805,6.029,13.2993,4.60000,2470.413,2021-6-22T03:03:51Z
2021-06-22T01:05:40Z,42.805,6.029,13.2993,4.59997,2470.413,2021-6-22T03:06:54Z
2021-06-22T01:08:43Z,42.805,6.029,13.2991,4.59999,2470.413,2021-6-22T03:09:57Z
2021-06-22T01:11:46Z,42.805,6.029,13.2991,4.60001,2470.45,2021-6-22T03:13:00Z
2021-06-22T01:14:49Z,42.805,6.029,13.2993,4.60000,2470.413,2021-6-22T03:16:03Z
2021-06-22T01:17:52Z,42.805,6.029,13.2993,4.60000,2470.413,2021-6-22T03:19:06Z
2021-06-22T01:20:55Z,42.805,6.029,13.2996,4.60001,2470.45,2021-6-22T03:22:09Z
2021-06-22T01:23:59Z,42.805,6.029,13.2991,4.60000,2470.413,2021-6-22T03:25:13Z
2021-06-22T01:27:02Z,42.805,6.029,13.2991,4.59999,2470.45,2021-6-22T03:28:16Z
2021-06-22T01:30:05Z,42.805,6.029,13.2996,4.60003,2470.427,2021-6-22T03:31:19Z
2021-06-22T01:33:08Z,42.805,6.029,13.2994,4.59999,2470.437,2021-6-22T03:34:22Z
2021-06-22T01:36:11Z,42.805,6.029,13.2994,4.60001,2470.45,2021-6-22T03:37:25Z
2021-06-22T01:39:14Z,42.805,6.029,13.2992,4.60000,2470.427,2021-6-22T03:40:28Z
2021-06-22T01:42:17Z,42.805,6.029,13.2991,4.60000,2470.437,2021-6-22T03:43:31Z
2021-06-22T01:45:20Z,42.805,6.029,13.2995,4.60001,2470.437,2021-6-22T03:46:34Z
2021-06-22T01:48:24Z,42.805,6.029,13.2999,4.60000,2470.413,2021-6-22T03:49:38Z
2021-06-22T01:51:27Z,42.805,6.029,13.2992,4.60001,2470.474,2021-6-22T03:52:41Z
2021-06-22T01:54:30Z,42.805,6.029,13.2994,4.60000,2470.427,2021-6-22T03:55:44Z
2021-06-22T01:57:33Z,42.805,6.029,13.2991,4.60000,2470.423,2021-6-22T03:58:47Z
2021-06-22T02:00:36Z,42.805,6.029,13.2995,4.60000,2470.437,2021-6-22T04:01:50Z
2021-06-22T02:03:39Z,42.805,6.029,13.2994,4.60002,2470.427,2021-6-22T04:04:53Z
2021-06-22T02:06:42Z,42.805,6.029,13.2993,4.59999,2470.437,2021-6-22T04:07:56Z
2021-06-22T02:09:45Z,42.805,6.029,13.2994,4.59999,2470.46,2021-6-22T04:10:59Z
2021-06-22T02:12:48Z,42.805,6.029,13.2995,4.60003,2470.474,2021-6-22T04:14:03Z
2021-06-22T02:15:52Z,42.805,6.029,13.2996,4.60000,2470.474,2021-6-22T04:17:06Z
2021-06-22T02:18:55Z,42.805,6.029,13.2991,4.60001,2470.46,2021-6-22T04:20:09Z
2021-06-22T02:21:58Z,42.805,6.029,13.2993,4.60000,2470.45,2021-6-22T04:23:12Z
2021-06-22T02:25:01Z,42.805,6.029,13.2996,4.60000,2470.474,2021-6-22T04:26:15Z
2021-06-22T02:28:04Z,42.805,6.029,13.2993,4.60000,2470.474,2021-6-22T04:29:18Z
2021-06-22T02:31:07Z,42.805,6.029,13.2994,4.60001,2470.474,2021-6-22T04:32:21Z
2021-06-22T02:34:10Z,42.805,6.029,13.2995,4.60002,2470.46,2021-6-22T04:35:24Z
2021-06-22T02:37:13Z,42.805,6.029,13.2992,4.60001,2470.46,2021-6-22T04:38:28Z
2021-06-22T02:40:17Z,42.805,6.029,13.2992,4.60002,2470.474,2021-6-22T04:41:31Z
2021-06-22T02:43:20Z,42.805,6.029,13.2993,4.60001,2470.46,2021-6-22T04:44:34Z
2021-06-22T02:46:23Z,42.805,6.029,13.2991,4.60001,2470.483,2021-6-22T04:47:37Z
2021-06-22T02:49:26Z,42.805,6.029,13.2995,4.60000,2470.507,2021-6-22T04:50:40Z
2021-06-22T02:52:29Z,42.805,6.029,13.2991,4.60003,2470.46,2021-6-22T04:53:43Z
2021-06-22T02:55:32Z,42.805,6.029,13.2997,4.60000,2470.483,2021-6-22T04:56:46Z
2021-06-22T02:58:35Z,42.805,6.029,13.2993,4.60000,2470.497,2021-6-22T04:59:49Z
2021-06-22T03:01:38Z,42.805,6.029,13.2998,4.60001,2470.483,2021-6-22T05:02:53Z
2021-06-22T03:04:42Z,42.805,6.029,13.2997,4.60001,2470.497,2021-6-22T05:05:56Z
2021-06-22T03:07:45Z,42.805,6.029,13.2992,4.60001,2470.497,2021-6-22T05:08:59Z
2021-06-22T03:10:48Z,42.805,6.029,13.2997,4.60000,2470.507,2021-6-22T05:12:02Z
2021-06-22T03:13:51Z,42.805,6.029,13.2994,4.60001,2470.52,2021-6-22T05:15:05Z
2021-06-22T03:16:54Z,42.805,6.029,13.2994,4.60001,2470.46,2021-6-22T05:18:08Z
2021-06-22T03:19:57Z,42.805,6.029,13.2994,4.60003,2470.46,2021-6-22T05:21:11Z
2021-06-22T03:23:00Z,42.805,6.029,13.2996,4.60000,2470.507,2021-6-22T05:24:14Z
2021-06-22T03:26:03Z,42.805,6.029,13.2993,4.60001,2470.483,2021-6-22T05:27:18Z
2021-06-22T03:29:07Z,42.805,6.029,13.2998,4.60003,2470.497,2021-6-22T05:30:21Z
2021-06-22T03:32:10Z,42.805,6.029,13.2994,4.60003,2470.483,2021-6-22T05:33:24Z
2021-06-22T03:35:13Z,42.805,6.029,13.2994,4.60001,2470.507,2021-6-22T05:36:27Z
2021-06-22T03:38:16Z,42.805,6.029,13.2996,4.60003,2470.483,2021-6-22T05:39:30Z
2021-06-22T03:41:19Z,42.805,6.029,13.2994,4.60003,2470.497,2021-6-22T05:42:33Z
2021-06-22T03:44:22Z,42.805,6.029,13.2993,4.60000,2470.483,2021-6-22T05:45:36Z
2021-06-22T03:47:25Z,42.805,6.029,13.2993,4.60002,2470.483,2021-6-22T05:48:39Z
2021-06-22T03:50:28Z,42.805,6.029,13.2993,4.60003,2470.497,2021-6-22T05:51:43Z
2021-06-22T03:53:32Z,42.805,6.029,13.2990,4.60001,2470.52,2021-6-22T05:54:46Z
2021-06-22T03:56:35Z,42.805,6.029,13.2995,4.60001,2470.497,2021-6-22T05:57:49Z
2021-06-22T03:59:38Z,42.805,6.029,13.2993,4.60002,2470.493,2021-6-22T06:00:52Z
2021-06-22T04:02:41Z,42.805,6.029,13.2994,4.60001,2470.52,2021-6-22T06:03:55Z
2021-06-22T04:05:44Z,42.805,6.029,13.2996,4.60002,2470.53,2021-6-22T06:06:58Z
2021-06-22T04:08:47Z,42.805,6.029,13.2991,4.60001,2470.544,2021-6-22T06:10:01Z
2021-06-22T04:11:50Z,42.805,6.029,13.3000,4.60001,2470.52,2021-6-22T06:13:04Z
2021-06-22T04:14:53Z,42.805,6.029,13.2998,4.60000,2470.507,2021-6-22T06:16:08Z
2021-06-22T04:17:57Z,42.805,6.029,13.2996,4.60002,2470.52,2021-6-22T06:19:11Z
2021-06-22T04:21:00Z,42.805,6.029,13.2995,4.60001,2470.507,2021-6-22T06:22:14Z
2021-06-22T04:24:03Z,42.805,6.029,13.2994,4.60003,2470.507,2021-6-22T06:25:17Z
2021-06-22T04:27:06Z,42.805,6.029,13.2995,4.60000,2470.507,2021-6-22T06:28:20Z
2021-06-22T04:30:09Z,42.805,6.029,13.2995,4.60001,2470.52,2021-6-22T06:31:23Z
2021-06-22T04:33:12Z,42.805,6.029,13.2992,4.60002,2470.507,2021-6-22T06:34:26Z
2021-06-22T04:36:15Z,42.805,6.029,13.2996,4.60003,2470.507,2021-6-22T06:37:29Z
2021-06-22T04:39:18Z,42.805,6.029,13.2995,4.60003,2470.53,2021-6-22T06:40:32Z
2021-06-22T04:42:22Z,42.805,6.029,13.2994,4.60002,2470.507,2021-6-22T06:43:36Z
2021-06-22T04:45:25Z,42.805,6.029,13.2994,4.60001,2470.53,2021-6-22T06:46:39Z
2021-06-22T04:48:28Z,42.805,6.029,13.2993,4.60001,2470.507,2021-6-22T06:49:42Z
2021-06-22T04:51:31Z,42.805,6.029,13.2997,4.60001,2470.53,2021-6-22T06:52:45Z
2021-06-22T04:54:34Z,42.805,6.029,13.2996,4.60002,2470.507,2021-6-22T06:55:48Z
2021-06-22T04:57:37Z,42.805,6.029,13.2999,4.60003,2470.53,2021-6-22T06:58:51Z
2021-06-22T05:00:40Z,42.805,6.029,13.2998,4.60001,2470.52,2021-6-22T07:01:54Z
2021-06-22T05:03:43Z,42.805,6.029,13.2995,4.60001,2470.544,2021-6-22T07:04:57Z
2021-06-22T05:06:46Z,42.805,6.029,13.2996,4.60001,2470.52,2021-6-22T07:08:01Z
2021-06-22T05:09:50Z,42.805,6.029,13.2997,4.60001,2470.567,2021-6-22T07:11:04Z
2021-06-22T05:12:53Z,42.805,6.029,13.2996,4.60001,2470.53,2021-6-22T07:14:07Z
2021-06-22T05:15:56Z,42.805,6.029,13.2996,4.60002,2470.53,2021-6-22T07:17:10Z
2021-06-22T05:18:59Z,42.805,6.029,13.2996,4.60002,2470.544,2021-6-22T07:20:13Z
2021-06-22T05:22:02Z,42.805,6.029,13.2993,4.60001,2470.544,2021-6-22T07:23:16Z
2021-06-22T05:25:05Z,42.805,6.029,13.2990,4.60002,2470.507,2021-6-22T07:26:19Z
2021-06-22T05:28:08Z,42.805,6.029,13.2996,4.60001,2470.53,2021-6-22T07:29:22Z
2021-06-22T05:31:11Z,42.805,6.029,13.2997,4.60001,2470.507,2021-6-22T07:32:26Z
2021-06-22T05:34:15Z,42.805,6.029,13.2995,4.60001,2470.507,2021-6-22T07:35:29Z
2021-06-22T05:37:18Z,42.805,6.029,13.2996,4.60003,2470.507,2021-6-22T07:38:32Z
2021-06-22T05:40:21Z,42.805,6.029,13.2993,4.60002,2470.544,2021-6-22T07:41:35Z
2021-06-22T05:43:24Z,42.805,6.029,13.2995,4.60005,2470.507,2021-6-22T07:44:38Z
2021-06-22T05:46:27Z,42.805,6.029,13.2993,4.60002,2470.52,2021-6-22T07:47:41Z
2021-06-22T05:49:30Z,42.805,6.029,13.2993,4.60001,2470.507,2021-6-22T07:50:44Z
2021-06-22T05:52:33Z,42.805,6.029,13.2995,4.60001,2470.507,2021-6-22T07:53:47Z
2021-06-22T05:55:36Z,42.805,6.029,13.2998,4.60002,2470.497,2021-6-22T07:56:51Z
2021-06-22T05:58:40Z,42.805,6.029,13.2999,4.60002,2470.544,2021-6-22T07:59:54Z
2021-06-22T06:01:43Z,42.805,6.029,13.2995,4.60003,2470.52,2021-6-22T08:02:57Z
2021-06-22T06:04:46Z,42.805,6.029,13.2996,4.60002,2470.483,2021-6-22T08:06:00Z
2021-06-22T06:07:49Z,42.805,6.029,13.2993,4.60001,2470.53,2021-6-22T08:09:03Z
2021-06-22T06:10:52Z,42.805,6.029,13.2996,4.60002,2470.53,2021-6-22T08:12:06Z
2021-06-22T06:13:55Z,42.805,6.029,13.2994,4.60003,2470.483,2021-6-22T08:15:09Z
2021-06-22T06:16:58Z,42.805,6.029,13.2992,4.60002,2470.507,2021-6-22T08:18:12Z
2021-06-22T06:20:01Z,42.805,6.029,13.2997,4.60003,2470.52,2021-6-22T08:21:15Z
2021-06-22T06:23:05Z,42.805,6.029,13.2994,4.60003,2470.507,2021-6-22T08:24:19Z
2021-06-22T06:26:08Z,42.805,6.029,13.2996,4.60002,2470.507,2021-6-22T08:27:22Z
2021-06-22T06:29:11Z,42.805,6.029,13.2993,4.60002,2470.507,2021-6-22T08:30:25Z
2021-06-22T06:32:14Z,42.805,6.029,13.2996,4.60001,2470.507,2021-6-22T08:33:28Z
2021-06-22T06:35:17Z,42.805,6.029,13.2991,4.60002,2470.497,2021-6-22T08:36:31Z
2021-06-22T06:38:20Z,42.805,6.029,13.2998,4.60002,2470.46,2021-6-22T08:39:34Z
2021-06-22T06:41:23Z,42.805,6.029,13.2995,4.60001,2470.507,2021-6-22T08:42:37Z
2021-06-22T06:44:32Z,42.805,6.029,13.2993,4.60002,2470.46,2021-6-22T08:45:40Z
2021-06-22T06:47:31Z,42.805,6.029,13.2996,4.60001,2470.497,2021-6-22T08:48:45Z
2021-06-22T06:50:34Z,42.805,6.029,13.2996,4.60001,2470.497,2021-6-22T08:51:48Z
2021-06-22T06:53:37Z,42.805,6.029,13.2992,4.60002,2470.46,2021-6-22T08:54:51Z
2021-06-22T06:56:40Z,42.805,6.029,13.2996,4.60001,2470.507,2021-6-22T08:57:54Z
2021-06-22T06:59:43Z,42.805,6.029,13.2997,4.60002,2470.507,2021-6-22T09:00:57Z
2021-06-22T07:02:46Z,42.805,6.029,13.2998,4.60001,2470.497,2021-6-22T09:04:00Z
2021-06-22T07:05:49Z,42.805,6.029,13.2997,4.60001,2470.46,2021-6-22T09:07:04Z
2021-06-22T07:08:53Z,42.805,6.029,13.2994,4.60002,2470.46,2021-6-22T09:10:07Z
2021-06-22T07:11:56Z,42.805,6.029,13.2996,4.60002,2470.483,2021-6-22T09:13:10Z
2021-06-22T07:14:59Z,42.805,6.029,13.2996,4.60001,2470.474,2021-6-22T09:16:13Z
2021-06-22T07:18:02Z,42.805,6.029,13.2995,4.60002,2470.474,2021-6-22T09:19:16Z
2021-06-22T07:21:05Z,42.805,6.029,13.2995,4.60001,2470.437,2021-6-22T09:22:19Z
2021-06-22T07:24:08Z,42.805,6.029,13.2995,4.60001,2470.474,2021-6-22T09:25:22Z
2021-06-22T07:27:11Z,42.805,6.029,13.2993,4.60001,2470.46,2021-6-22T09:28:25Z
2021-06-22T07:30:14Z,42.805,6.029,13.2997,4.60001,2470.46,2021-6-22T09:31:29Z
2021-06-22T07:33:18Z,42.805,6.029,13.2996,4.60001,2470.46,2021-6-22T09:34:32Z
2021-06-22T07:36:21Z,42.805,6.029,13.2997,4.60001,2470.474,2021-6-22T09:37:35Z
2021-06-22T07:39:24Z,42.805,6.029,13.2996,4.60001,2470.437,2021-6-22T09:40:38Z
2021-06-22T07:42:27Z,42.805,6.029,13.2995,4.60002,2470.45,2021-6-22T09:43:41Z
2021-06-22T07:45:30Z,42.805,6.029,13.2995,4.60001,2470.437,2021-6-22T09:46:44Z
2021-06-22T07:48:33Z,42.805,6.029,13.2994,4.60004,2470.46,2021-6-22T09:49:47Z
2021-06-22T07:51:36Z,42.805,6.029,13.2997,4.60001,2470.437,2021-6-22T09:52:50Z
2021-06-22T07:54:39Z,42.805,6.029,13.2993,4.60001,2470.437,2021-6-22T09:55:54Z
2021-06-22T07:57:43Z,42.805,6.029,13.2996,4.60001,2470.413,2021-6-22T09:58:57Z
2021-06-22T08:00:46Z,42.805,6.029,13.2991,4.60000,2470.427,2021-6-22T10:02:00Z
2021-06-22T08:03:49Z,42.805,6.029,13.2998,4.60003,2470.45,2021-6-22T10:05:03Z
2021-06-22T08:06:52Z,42.805,6.029,13.2994,4.60000,2470.427,2021-6-22T10:08:06Z
2021-06-22T08:09:55Z,42.805,6.029,13.2996,4.60001,2470.39,2021-6-22T10:11:09Z
2021-06-22T08:12:58Z,42.805,6.029,13.2994,4.60001,2470.399,2021-6-22T10:14:12Z
2021-06-22T08:16:01Z,42.805,6.029,13.2996,4.60000,2470.39,2021-6-22T10:17:15Z
2021-06-22T08:19:04Z,42.805,6.029,13.2996,4.60001,2470.399,2021-6-22T10:20:19Z
2021-06-22T08:22:08Z,42.805,6.029,13.2998,4.60000,2470.404,2021-6-22T10:23:22Z
2021-06-22T08:25:11Z,42.805,6.029,13.2993,4.60001,2470.39,2021-6-22T10:26:25Z
2021-06-22T08:28:14Z,42.805,6.029,13.2996,4.60002,2470.427,2021-6-22T10:29:28Z
2021-06-22T08:31:17Z,42.805,6.029,13.2991,4.60001,2470.39,2021-6-22T10:32:31Z
2021-06-22T08:34:20Z,42.805,6.029,13.2995,4.60000,2470.427,2021-6-22T10:35:34Z
2021-06-22T08:37:23Z,42.805,6.029,13.2996,4.60001,2470.404,2021-6-22T10:38:37Z
2021-06-22T08:40:26Z,42.805,6.029,13.2995,4.60000,2470.404,2021-6-22T10:41:40Z
2021-06-22T08:43:29Z,42.805,6.029,13.2993,4.60000,2470.404,2021-6-22T10:44:44Z
2021-06-22T08:46:33Z,42.805,6.029,13.2993,4.60000,2470.427,2021-6-22T10:47:47Z
2021-06-22T08:49:36Z,42.805,6.029,13.2995,4.60000,2470.39,2021-6-22T10:50:50Z
2021-06-22T08:52:39Z,42.805,6.029,13.2992,4.60003,2470.404,2021-6-22T10:53:53Z
2021-06-22T08:55:42Z,42.805,6.029,13.2996,4.60001,2470.39,2021-6-22T10:56:56Z
2021-06-22T08:58:45Z,42.805,6.029,13.2995,4.60003,2470.366,2021-6-22T10:59:59Z
2021-06-22T09:01:48Z,42.805,6.029,13.2995,4.60001,2470.39,2021-6-22T11:03:02Z
2021-06-22T09:04:51Z,42.805,6.029,13.2996,4.60001,2470.366,2021-6-22T11:06:05Z
2021-06-22T09:07:54Z,42.805,6.029,13.2995,4.60000,2470.366,2021-6-22T11:09:09Z
2021-06-22T09:10:58Z,42.805,6.029,13.2999,4.60000,2470.343,2021-6-22T11:12:12Z
2021-06-22T09:14:01Z,42.805,6.029,13.2993,4.60001,2470.366,2021-6-22T11:15:15Z
2021-06-22T09:17:04Z,42.805,6.029,13.2996,4.60000,2470.366,2021-6-22T11:18:18Z
2021-06-22T09:20:07Z,42.805,6.029,13.2999,4.60001,2470.366,2021-6-22T11:21:21Z
2021-06-22T09:23:10Z,42.805,6.029,13.2997,4.60001,2470.343,2021-6-22T11:24:24Z
2021-06-22T09:26:13Z,42.805,6.029,13.2994,4.60001,2470.343,2021-6-22T11:27:27Z
2021-06-22T09:29:16Z,42.805,6.029,13.2993,4.60001,2470.357,2021-6-22T11:30:30Z
2021-06-22T09:32:19Z,42.805,6.029,13.2992,4.60001,2470.357,2021-6-22T11:33:34Z
2021-06-22T09:35:23Z,42.805,6.029,13.2996,4.60001,2470.343,2021-6-22T11:36:37Z
2021-06-22T09:38:26Z,42.805,6.029,13.2995,4.60000,2470.357,2021-6-22T11:39:40Z
2021-06-22T09:41:29Z,42.805,6.029,13.3000,4.60000,2470.38,2021-6-22T11:42:43Z
2021-06-22T09:44:32Z,42.805,6.029,13.2996,4.60000,2470.334,2021-6-22T11:45:46Z
2021-06-22T09:47:35Z,42.805,6.029,13.2993,4.60001,2470.343,2021-6-22T11:48:49Z
2021-06-22T09:50:38Z,42.805,6.029,13.2993,4.60004,2470.343,2021-6-22T11:51:52Z
2021-06-22T09:53:41Z,42.805,6.029,13.2994,4.60001,2470.366,2021-6-22T11:54:55Z
2021-06-22T09:56:45Z,42.805,6.029,13.2993,4.60002,2470.343,2021-6-22T11:57:59Z
2021-06-22T09:59:48Z,42.805,6.029,13.2995,4.60001,2470.343,2021-6-22T12:01:02Z
2021-06-22T10:02:51Z,42.805,6.029,13.2995,4.60001,2470.343,2021-6-22T12:04:05Z
2021-06-22T10:05:54Z,42.805,6.029,13.2993,4.60003,2470.366,2021-6-22T12:07:08Z
2021-06-22T10:08:57Z,42.805,6.029,13.2997,4.60001,2470.343,2021-6-22T12:10:11Z
2021-06-22T10:12:00Z,42.805,6.029,13.2996,4.60001,2470.32,2021-6-22T12:13:14Z
2021-06-22T10:15:03Z,42.805,6.029,13.2996,4.60001,2470.343,2021-6-22T12:16:17Z
2021-06-22T10:18:06Z,42.805,6.029,13.2993,4.60001,2470.32,2021-6-22T12:19:20Z
2021-06-22T10:21:10Z,42.805,6.029,13.2996,4.60003,2470.343,2021-6-22T12:22:24Z
2021-06-22T10:24:13Z,42.805,6.029,13.2998,4.60003,2470.334,2021-6-22T12:25:27Z
2021-06-22T10:27:16Z,42.805,6.029,13.2996,4.60001,2470.334,2021-6-22T12:28:30Z
2021-06-22T10:30:19Z,42.805,6.029,13.2999,4.60001,2470.297,2021-6-22T12:31:33Z
2021-06-22T10:33:22Z,42.805,6.029,13.2995,4.60002,2470.32,2021-6-22T12:34:36Z
2021-06-22T10:36:25Z,42.805,6.029,13.2998,4.60002,2470.297,2021-6-22T12:37:39Z
2021-06-22T10:39:28Z,42.805,6.029,13.2999,4.60002,2470.32,2021-6-22T12:40:42Z
2021-06-22T10:42:31Z,42.805,6.029,13.2998,4.60003,2470.32,2021-6-22T12:43:45Z
2021-06-22T10:45:35Z,42.805,6.029,13.2994,4.60002,2470.297,2021-6-22T12:46:49Z
2021-06-22T10:48:38Z,42.805,6.029,13.2993,4.60002,2470.334,2021-6-22T12:49:52Z
2021-06-22T10:51:41Z,42.805,6.029,13.2996,4.60001,2470.297,2021-6-22T12:52:55Z
2021-06-22T10:54:44Z,42.805,6.029,13.2996,4.60001,2470.334,2021-6-22T12:55:58Z
2021-06-22T10:57:47Z,42.805,6.029,13.2995,4.60001,2470.31,2021-6-22T12:59:01Z
2021-06-22T11:00:50Z,42.805,6.029,13.2994,4.60001,2470.297,2021-6-22T13:02:04Z
2021-06-22T11:03:53Z,42.805,6.029,13.2996,4.60001,2470.32,2021-6-22T13:05:07Z
2021-06-22T11:06:56Z,42.805,6.029,13.2996,4.60001,2470.343,2021-6-22T13:08:11Z
2021-06-22T11:10:00Z,42.805,6.029,13.3000,4.60003,2470.334,2021-6-22T13:11:14Z
2021-06-22T11:13:03Z,42.805,6.029,13.2995,4.60001,2470.31,2021-6-22T13:14:17Z
2021-06-22T11:16:06Z,42.805,6.029,13.2999,4.60001,2470.334,2021-6-22T13:17:20Z
2021-06-22T11:19:09Z,42.805,6.029,13.2999,4.60001,2470.334,2021-6-22T13:20:23Z
2021-06-22T11:22:12Z,42.805,6.029,13.2994,4.60001,2470.297,2021-6-22T13:23:26Z
2021-06-22T11:25:15Z,42.805,6.029,13.2994,4.60001,2470.297,2021-6-22T13:26:29Z
2021-06-22T11:28:18Z,42.805,6.029,13.2995,4.60001,2470.32,2021-6-22T13:29:32Z
2021-06-22T11:31:21Z,42.805,6.029,13.2996,4.60002,2470.297,2021-6-22T13:32:36Z
2021-06-22T11:34:25Z,42.805,6.029,13.2996,4.60002,2470.32,2021-6-22T13:35:39Z
2021-06-22T11:37:28Z,42.805,6.029,13.2993,4.60002,2470.334,2021-6-22T13:38:42Z
2021-06-22T11:40:31Z,42.805,6.029,13.2998,4.60003,2470.273,2021-6-22T13:41:45Z
2021-06-22T11:43:34Z,42.805,6.029,13.2998,4.60001,2470.273,2021-6-22T13:44:48Z
2021-06-22T11:46:37Z,42.805,6.029,13.2993,4.60004,2470.297,2021-6-22T13:47:51Z
2021-06-22T11:49:40Z,42.805,6.029,13.2996,4.60001,2470.273,2021-6-22T13:50:54Z
2021-06-22T11:52:43Z,42.805,6.029,13.2994,4.60001,2470.31,2021-6-22T13:53:57Z
2021-06-22T11:55:47Z,42.805,6.029,13.2997,4.60003,2470.31,2021-6-22T13:57:01Z
2021-06-22T11:58:50Z,42.805,6.029,13.2996,4.60001,2470.32,2021-6-22T14:00:04Z
2021-06-22T12:01:53Z,42.805,6.029,13.2997,4.60002,2470.31,2021-6-22T14:03:07Z
2021-06-22T12:04:56Z,42.805,6.029,13.2996,4.60002,2470.297,2021-6-22T14:06:10Z
2021-06-22T12:07:59Z,42.805,6.029,13.2994,4.60002,2470.31,2021-6-22T14:09:13Z
2021-06-22T12:11:02Z,42.805,6.029,13.2997,4.60002,2470.31,2021-6-22T14:12:16Z
2021-06-22T12:14:05Z,42.805,6.029,13.2997,4.60002,2470.31,2021-6-22T14:15:19Z
2021-06-22T12:17:08Z,42.805,6.029,13.2998,4.60003,2470.283,2021-6-22T14:18:22Z
2021-06-22T12:20:12Z,42.805,6.029,13.2996,4.60002,2470.31,2021-6-22T14:21:26Z
2021-06-22T12:23:15Z,42.805,6.029,13.2993,4.60003,2470.32,2021-6-22T14:24:29Z
2021-06-22T12:26:18Z,42.805,6.029,13.2997,4.60001,2470.297,2021-6-22T14:27:32Z
2021-06-22T12:29:21Z,42.805,6.029,13.2998,4.60002,2470.31,2021-6-22T14:30:35Z
2021-06-22T12:32:24Z,42.805,6.029,13.2995,4.60003,2470.287,2021-6-22T14:33:38Z
2021-06-22T12:35:27Z,42.805,6.029,13.2993,4.60002,2470.31,2021-6-22T14:36:41Z
2021-06-22T12:38:30Z,42.805,6.029,13.2993,4.60001,2470.297,2021-6-22T14:39:44Z
2021-06-22T12:41:33Z,42.805,6.029,13.2996,4.60001,2470.31,2021-6-22T14:42:48Z
2021-06-22T12:44:37Z,42.805,6.029,13.2998,4.60003,2470.297,2021-6-22T14:45:51Z
2021-06-22T12:47:40Z,42.805,6.029,13.2996,4.60003,2470.32,2021-6-22T14:48:54Z
2021-06-22T12:50:43Z,42.805,6.029,13.2997,4.60002,2470.32,2021-6-22T14:51:57Z
2021-06-22T12:53:46Z,42.805,6.029,13.2996,4.60001,2470.31,2021-6-22T14:55:00Z
2021-06-22T12:56:49Z,42.805,6.029,13.2995,4.60002,2470.297,2021-6-22T14:58:03Z
2021-06-22T12:59:52Z,42.805,6.029,13.2992,4.60001,2470.357,2021-6-22T15:01:06Z
2021-06-22T13:02:55Z,42.805,6.029,13.2995,4.60003,2470.32,2021-6-22T15:04:09Z
2021-06-22T13:05:58Z,42.805,6.029,13.2997,4.60002,2470.31,2021-6-22T15:07:13Z
2021-06-22T13:09:02Z,42.805,6.029,13.2998,4.60003,2470.334,2021-6-22T15:10:16Z
2021-06-22T13:12:05Z,42.805,6.029,13.2998,4.60002,2470.297,2021-6-22T15:13:19Z
2021-06-22T13:15:08Z,42.805,6.029,13.2996,4.60003,2470.32,2021-6-22T15:16:22Z
2021-06-22T13:18:11Z,42.805,6.029,13.2997,4.60001,2470.343,2021-6-22T15:19:25Z
2021-06-22T13:21:14Z,42.805,6.029,13.2995,4.60002,2470.343,2021-6-22T15:22:28Z
2021-06-22T13:24:17Z,42.805,6.029,13.2993,4.60003,2470.334,2021-6-22T15:25:31Z
2021-06-22T13:27:20Z,42.805,6.029,13.2998,4.60003,2470.366,2021-6-22T15:28:34Z
2021-06-22T13:30:24Z,42.805,6.029,13.2996,4.60002,2470.343,2021-6-22T15:31:38Z
2021-06-22T13:33:27Z,42.805,6.029,13.2993,4.60001,2470.357,2021-6-22T15:34:41Z
2021-06-22T13:36:30Z,42.805,6.029,13.2997,4.60003,2470.343,2021-6-22T15:37:44Z
2021-06-22T13:39:33Z,42.805,6.029,13.2996,4.60002,2470.343,2021-6-22T15:40:47Z
2021-06-22T13:42:36Z,42.805,6.029,13.2997,4.60003,2470.366,2021-6-22T15:43:50Z
2021-06-22T13:45:39Z,42.805,6.029,13.2996,4.60002,2470.343,2021-6-22T15:46:53Z
2021-06-22T13:48:42Z,42.805,6.029,13.2991,4.60003,2470.357,2021-6-22T15:49:56Z
2021-06-22T13:51:45Z,42.805,6.029,13.2995,4.60002,2470.343,2021-6-22T15:53:00Z
2021-06-22T13:54:49Z,42.805,6.029,13.2996,4.60003,2470.343,2021-6-22T15:56:03Z
2021-06-22T13:57:52Z,42.805,6.029,13.2994,4.60002,2470.39,2021-6-22T15:59:06Z
2021-06-22T14:00:55Z,42.805,6.029,13.2998,4.60003,2470.366,2021-6-22T16:02:09Z
2021-06-22T14:03:58Z,42.805,6.029,13.2996,4.60003,2470.357,2021-6-22T16:05:12Z
2021-06-22T14:07:01Z,42.805,6.029,13.2995,4.60003,2470.404,2021-6-22T16:08:15Z
2021-06-22T14:10:04Z,42.805,6.029,13.2996,4.60003,2470.39,2021-6-22T16:11:18Z
2021-06-22T14:13:07Z,42.805,6.029,13.2996,4.60003,2470.38,2021-6-22T16:14:21Z
2021-06-22T14:16:10Z,42.805,6.029,13.2998,4.60003,2470.366,2021-6-22T16:17:25Z
2021-06-22T14:19:14Z,42.805,6.029,13.2996,4.60004,2470.404,2021-6-22T16:20:28Z
2021-06-22T14:22:17Z,42.805,6.029,13.2998,4.60004,2470.38,2021-6-22T16:23:31Z
2021-06-22T14:25:20Z,42.805,6.029,13.3001,4.60003,2470.39,2021-6-22T16:26:34Z
2021-06-22T14:28:23Z,42.805,6.029,13.2994,4.60003,2470.39,2021-6-22T16:29:37Z
2021-06-22T14:31:26Z,42.805,6.029,13.2998,4.60004,2470.427,2021-6-22T16:32:40Z
2021-06-22T14:34:29Z,42.805,6.029,13.3000,4.60003,2470.413,2021-6-22T16:35:43Z
2021-06-22T14:37:32Z,42.805,6.029,13.2996,4.60004,2470.404,2021-6-22T16:38:46Z
2021-06-22T14:40:35Z,42.805,6.029,13.2993,4.60003,2470.427,2021-6-22T16:41:50Z
2021-06-22T14:43:39Z,42.805,6.029,13.2996,4.60003,2470.45,2021-6-22T16:44:53Z
2021-06-22T14:46:42Z,42.805,6.029,13.2995,4.60005,2470.437,2021-6-22T16:47:56Z
2021-06-22T14:49:45Z,42.805,6.029,13.2996,4.60005,2470.39,2021-6-22T16:50:59Z
2021-06-22T14:52:48Z,42.805,6.029,13.2994,4.60003,2470.437,2021-6-22T16:54:02Z
2021-06-22T14:55:51Z,42.805,6.029,13.2996,4.60003,2470.46,2021-6-22T16:57:05Z
2021-06-22T14:58:54Z,42.805,6.029,13.2996,4.60003,2470.45,2021-6-22T17:00:08Z
2021-06-22T15:01:57Z,42.805,6.029,13.2996,4.60003,2470.427,2021-6-22T17:03:11Z
2021-06-22T15:05:00Z,42.805,6.029,13.2993,4.60003,2470.474,2021-6-22T17:06:15Z
2021-06-22T15:08:04Z,42.805,6.029,13.2995,4.60003,2470.45,2021-6-22T17:09:18Z
2021-06-22T15:11:07Z,42.805,6.029,13.2995,4.60004,2470.413,2021-6-22T17:12:21Z
2021-06-22T15:14:10Z,42.805,6.029,13.2994,4.60003,2470.45,2021-6-22T17:15:24Z